Regional Weather Roundup
Issued by NWS Charleston, WV

Home | Current Version | Previous Version | Graphics & Text | Print | Product List | Glossary On
Versions: 1 2 3 4 5 6 7 8 9 10 11 12 13 14 15 16 17 18 19 20 21 22 23 24 25 26 27 28 29 30 31 32 33 34 35 36 37 38 39 40 41 42 43 44 45 46 47 48
000
ASUS41 KRLX 030310
RWRRLX
West Virginia Regional Weather Roundup
National Weather Service Charleston WV
1100 PM EDT WED SEP 02 2015

Note: "fair" indicates few or no clouds below 12,000 feet with no
significant weather and/or obstructions to visibility.

WVZ003-030400-
Northern Panhandle of West Virginia

CITY           SKY/WX    TMP DP  RH WIND       PRES   REMARKS
WHEELING       MOCLDY    74  64  71 W5        30.03R
$$

WVZ009-030400-
Northwest West Virginia

CITY           SKY/WX    TMP DP  RH WIND       PRES   REMARKS
PARKERSBURG    PTCLDY    69  67  93 CALM      30.06R FOG
$$

WVZ006-030400-
Western West Virginia

CITY           SKY/WX    TMP DP  RH WIND       PRES   REMARKS
HUNTINGTON     CLEAR     71  69  93 CALM      30.05R
$$

WVZ015-030400-
West Central West Virginia

CITY           SKY/WX    TMP DP  RH WIND       PRES   REMARKS
CHARLESTON     PTCLDY    71  68  90 CALM      30.05R
$$

WVZ022-031-030400-
North Central West Virginia

CITY           SKY/WX    TMP DP  RH WIND       PRES   REMARKS
CLARKSBURG     PTCLDY    67  66  97 CALM      30.06R
MORGANTOWN     CLEAR     73  64  73 S3        30.06R
$$

WVZ025-035-042-045-030400-
Southern West Virginia

CITY           SKY/WX    TMP DP  RH WIND       PRES   REMARKS
BECKLEY        CLEAR     68  62  81 CALM      30.13S
LOGAN            N/A     72  68  88 CALM      30.10R
BLUEFIELD      PTCLDY    71  61  70 CALM      30.16R
LEWISBURG      PTCLDY    67  63  86 S3        30.12S
$$

WVZ047-030400-
Northern Mountains of West Virginia

CITY           SKY/WX    TMP DP  RH WIND       PRES   REMARKS
ELKINS         CLEAR     62  59  90 CALM      30.11S
$$

WVZ052-030400-
Eastern Panhandle of West Virginia

CITY           SKY/WX    TMP DP  RH WIND       PRES   REMARKS
MARTINSBURG    CLEAR     70  68  93 SE5       29.98S FOG
PETERSBURG     CLEAR     64  64  98 CALM      30.04R FOG
$$



USA.gov is the U.S. government's official web portal to all federal, state and local government web resources and services.